Temperature
21 21 20 19 19 19 21 25 28 29 29 29 29 28 27 26 25 22 22 23 23 23 22 22 21 21 21 21 20 20 20 20 20 20 20 20 19 20 20 20 19 19 19 19 19 19 19 19 19
22 21 20 19 19 21 24 27 29 29 29 29 29 28 27 25 23 22 22 23 23 23 22 22 21 21 21 21 20 20 20 20 20 20 19 19 19 19 19 19 19 19 19 19 19 19 19 19 19
22 21 20 19 20 22 26 29 29 30 30 29 28 28 27 26 23 23 23 23 23 23 22 22 21 21 21 21 20 20 20 20 20 20 20 20 20 19 19 20 20 19 19 19 19 19 19 19 19
21 20 20 19 22 24 27 29 30 30 29 29 28 26 26 26 25 24 23 23 24 23 22 22 22 21 21 21 21 20 20 20 20 20 20 20 20 20 20 20 20 20 20 20 19 19 20 20 20
21 21 20 20 23 27 29 30 30 29 28 27 27 25 26 25 26 25 24 24 24 23 22 22 22 22 21 21 21 21 21 20 20 20 20 20 20 20 20 20 20 20 20 20 20 20 20 20 20
21 21 21 22 25 28 29 30 29 28 27 27 26 25 25 24 25 24 23 24 24 24 23 22 22 22 22 21 21 21 21 21 20 20 20 20 20 20 20 20 20 20 20 20 20 20 20 20 20
22 21 22 24 25 27 29 29 28 27 27 26 26 24 25 23 23 23 23 23 23 23 23 22 22 22 21 21 21 21 21 20 20 20 20 20 20 20 20 19 19 19 19 19 20 20 20 20 20
24 21 23 23 26 27 28 28 28 27 26 25 26 24 24 23 23 22 22 22 22 22 22 22 21 21 21 20 20 20 20 20 20 20 20 20 20 20 20 19 19 19 19 19 19 19 19 20 20
25 21 21 23 26 27 27 27 26 25 24 24 24 24 24 23 23 22 21 21 21 21 21 20 20 20 20 20 20 19 19 19 19 19 19 19 19 19 19 19 19 19 19 19 19 19 19 19 19
24 20 22 25 27 26 26 26 26 24 23 22 23 23 23 23 22 22 21 20 20 20 19 19 19 19 20 19 19 19 19 19 19 19 19 19 19 19 19 19 18 18 18 18 18 18 18 19 19
24 23 24 26 28 27 25 24 24 23 21 21 21 22 22 22 21 21 20 20 19 19 19 18 19 19 19 19 19 19 19 19 19 19 19 19 19 18 18 18 18 18 18 18 18 18 18 18 18
25 25 27 27 28 27 25 23 21 21 20 20 20 21 21 21 20 19 19 19 19 19 19 18 18 19 19 18 18 18 18 18 18 18 18 18 18 18 18 18 17 17 17 17 17 17 17 17 18
25 25 27 27 26 25 23 22 20 20 19 19 20 20 20 19 19 19 19 19 19 19 18 18 18 18 18 18 18 18 18 18 18 18 18 18 17 17 17 17 17 17 17 17 17 17 17 17 17
26 26 26 25 26 24 22 21 20 19 19 19 19 19 19 19 18 19 19 18 18 18 18 18 18 18 18 18 18 18 18 18 17 17 17 17 17 17 17 17 17 17 17 17 17 16 16 16 16
27 25 24 24 24 23 22 20 19 19 19 19 18 18 18 18 18 18 18 18 18 18 18 18 18 18 18 18 18 18 17 17 17 17 17 17 17 17 17 17 16 16 17 16 16 16 16 16 16
25 23 22 23 23 23 22 19 19 19 19 18 18 18 18 18 18 18 18 18 18 18 18 18 18 18 18 18 17 17 17 17 17 16 16 16 16 16 16 16 16 16 16 16 16 16 16 16 15
23 22 23 23 22 22 20 19 19 18 18 18 18 17 18 17 17 18 18 18 18 18 18 18 18 18 17 17 17 17 16 16 16 16 16 15 15 15 15 16 15 15 15 15 15 15 15 15 15
22 22 23 22 22 21 19 18 18 18 18 18 18 18 18 18 18 18 18 18 18 18 18 18 18 17 17 17 16 16 16 15 15 15 15 15 15 15 15 15 15 15 15 15 15 15 15 15 15
23 23 22 22 21 20 19 18 17 17 17 17 18 18 18 18 18 18 18 18 18 18 18 17 17 17 17 16 16 15 15 15 14 14 14 14 14 14 14 14 14 14 14 14 14 14 14 14 14
24 23 21 21 21 20 18 17 17 17 16 17 17 18 18 18 18 18 18 18 18 18 18 17 17 17 16 16 15 15 14 14 14 14 13 13 13 13 13 14 14 14 14 14 14 14 14 14 14
23 22 21 20 19 19 18 17 16 17 16 17 18 18 19 19 19 19 19 18 18 18 18 18 17 17 16 15 15 14 14 13 13 13 13 13 13 13 13 13 13 14 14 14 14 14 14 14 14
22 23 23 21 18 16 17 16 16 16 16 17 18 18 19 19 19 19 19 19 19 18 18 17 17 16 16 15 14 14 13 12 12 12 12 12 12 13 13 13 13 13 13 13 13 13 13 13 13
23 24 23 20 17 16 16 16 16 16 16 17 18 19 19 20 20 20 19 19 19 18 18 17 16 16 15 14 14 13 12 12 11 11 11 12 12 12 12 12 12 12 13 13 13 13 13 13 13
23 22 20 17 16 16 16 17 17 16 16 17 18 19 20 20 20 20 19 19 18 18 17 17 16 15 15 14 13 12 12 11 11 11 11 11 11 12 12 12 12 12 12 12 12 12 13 13 13
23 20 19 19 17 17 16 17 17 17 18 18 18 19 20 20 20 20 19 19 18 18 17 16 15 15 14 13 13 12 11 11 11 10 10 10 10 10 11 11 11 11 11 11 12 12 12 12 13
24 21 20 20 18 16 16 17 17 18 19 19 19 20 20 20 20 19 19 18 18 17 16 16 15 14 13 13 12 11 11 11 10 10 10 10 10 10 10 10 10 10 11 11 11 11 11 12 12
25 22 21 18 17 16 17 17 18 19 20 20 20 20 20 20 19 19 19 18 17 17 16 15 14 13 13 12 12 11 11 10 10 10 10 9 9 9 9 9 10 10 10 10 10 11 11 11 11
24 22 19 18 18 18 18 18 17 19 19 19 19 19 19 19 19 19 18 18 17 16 15 15 14 13 12 12 11 11 11 10 10 9 9 9 9 9 9 9 9 9 9 10 10 10 10 10 11
24 23 19 17 17 17 18 18 19 19 18 18 18 20 20 19 19 19 18 18 17 16 15 14 13 13 12 12 11 11 10 10 10 9 9 9 9 9 8 8 9 9 9 9 9 9 9 10 10
24 23 20 19 20 17 17 18 20 18 18 19 19 20 20 19 19 19 18 17 16 15 14 14 13 12 12 12 11 11 10 10 10 9 9 9 8 8 8 8 8 8 8 9 9 9 9 9 9
Wind_Speed
16 13 5 3 1 2 6 7 2 3 5 8 11 10 8 7 5 5 3 15 19 17 16 18 18 17 17 17 17 16 15 15 15 15 15 15 14 14 14 13 13 12 12 12 12 12 11 11 11
13 8 3 2 1 3 6 5 2 5 10 13 12 10 8 8 9 11 8 14 19 16 15 17 18 17 17 17 16 16 15 15 14 14 14 14 13 13 12 12 11 11 11 12 12 12 11 11 10
10 6 2 2 3 5 6 3 3 5 9 9 6 6 5 6 10 8 11 18 16 12 15 18 19 18 17 16 16 15 15 14 14 14 14 14 13 13 12 11 11 10 11 11 11 11 11 11 10
5 2 1 2 8 9 8 9 2 8 9 9 8 6 5 4 6 12 19 18 17 12 14 18 19 18 17 16 15 15 14 14 14 14 14 13 13 13 12 12 11 11 10 11 11 11 11 11 10
3 3 1 4 8 8 8 6 6 11 7 9 12 7 4 6 18 22 20 18 17 13 13 17 19 18 17 16 15 15 14 13 13 13 13 12 12 12 12 12 12 12 11 11 12 12 12 12 11
2 2 1 5 8 9 7 3 13 16 14 10 9 7 4 8 18 19 18 15 15 15 12 16 19 18 17 16 15 14 13 12 12 11 11 10 10 10 10 11 12 12 12 12 13 13 14 13 13
3 2 4 5 7 8 5 6 11 13 11 6 5 6 3 7 13 15 15 14 13 12 9 9 13 14 15 14 13 12 12 11 11 11 10 10 10 10 11 11 12 12 13 13 14 15 15 15 15
5 2 4 4 5 6 6 8 9 12 9 6 5 6 4 5 12 16 15 13 12 10 8 6 8 10 10 11 13 12 12 12 11 11 11 11 11 11 12 12 13 14 14 15 15 16 16 16 16
1 2 4 4 4 5 6 9 10 10 12 9 7 6 7 11 17 17 13 11 10 9 6 5 5 6 8 9 11 11 11 11 11 11 11 11 10 10 10 12 14 15 16 17 17 18 18 17 17
4 3 8 7 5 3 5 8 7 9 13 9 8 11 13 15 16 16 14 11 10 9 7 5 4 4 6 8 8 8 8 9 10 10 11 11 10 11 12 14 16 18 19 19 20 20 19 18 14
5 7 9 11 10 2 4 9 8 9 10 6 7 9 13 17 15 14 13 12 10 9 9 6 4 3 3 2 4 4 6 7 10 11 12 11 10 10 11 10 11 14 17 17 18 19 16 14 12
6 10 10 9 7 1 3 7 9 12 9 11 13 13 16 17 14 13 14 12 11 11 10 7 6 6 5 5 2 1 1 3 4 8 10 8 5 5 5 5 7 8 10 10 11 10 13 14 15
8 12 11 5 3 6 12 13 12 12 13 14 16 16 15 15 13 12 12 11 10 10 9 7 6 6 4 3 1 2 1 1 1 3 4 5 3 3 3 3 4 5 7 6 6 7 9 10 11
6 4 3 3 4 6 14 10 8 8 10 13 14 13 12 12 11 10 9 9 9 8 7 6 6 5 4 4 3 2 3 3 3 1 0 2 3 2 2 3 3 3 5 6 6 7 9 9 9
4 4 5 6 6 4 8 11 8 6 8 11 11 12 11 9 10 10 8 8 7 7 6 5 6 6 6 6 5 4 5 5 3 3 3 1 1 1 1 2 3 4 5 6 5 6 6 8 9
5 5 4 5 5 4 9 7 6 6 8 7 8 9 10 8 8 8 8 7 7 6 6 5 7 7 7 7 6 5 6 6 5 5 4 3 2 1 1 2 4 4 5 3 4 5 6 7 8
5 3 2 4 6 5 8 5 5 6 7 5 4 6 7 7 7 7 7 7 7 6 6 5 6 7 6 7 5 5 6 6 7 7 5 3 2 2 1 2 4 4 3 4 4 4 5 6 7
3 2 3 3 6 8 7 5 5 7 6 3 2 3 5 6 7 7 7 7 7 6 5 5 5 5 5 5 5 5 6 6 6 6 6 5 4 4 2 3 4 4 4 4 4 5 4 5 5
1 1 1 2 5 7 7 5 4 5 3 1 1 2 4 6 7 7 7 7 6 5 5 5 5 4 3 3 3 3 3 4 5 5 8 8 7 6 4 4 5 4 4 5 5 4 5 4 3
1 1 1 1 4 5 6 4 2 2 3 5 5 6 7 6 6 7 8 7 6 6 6 6 6 5 4 3 2 1 1 2 2 4 5 8 9 9 6 5 5 4 4 5 5 4 3 3 2
1 4 5 4 4 5 4 1 3 3 2 5 7 8 8 10 9 9 8 8 7 7 8 7 6 6 4 3 2 2 3 3 4 5 5 6 10 10 8 6 5 4 3 4 5 4 4 3 2
3 7 10 10 6 1 1 1 4 3 2 5 7 7 9 9 9 9 8 8 7 7 6 6 6 5 4 3 2 1 0 2 3 3 4 7 8 8 9 7 5 4 2 3 4 3 3 3 3
4 5 8 9 6 4 2 2 4 2 4 7 7 8 9 10 10 9 8 7 6 5 5 5 5 4 3 2 2 1 1 3 3 4 5 6 6 7 7 7 6 4 3 3 3 3 3 3 4
9 7 8 5 4 3 1 1 3 4 6 6 7 8 9 9 8 6 4 5 4 4 5 5 4 3 2 2 1 2 3 4 4 5 5 5 5 6 7 6 6 6 5 5 5 4 4 3 4
5 6 3 4 4 1 2 1 6 7 7 8 9 8 8 6 5 5 6 6 5 5 4 4 4 2 2 2 2 3 3 3 3 3 4 4 4 4 6 6 5 5 5 6 5 5 5 4 4
3 8 6 3 3 1 2 3 7 7 7 7 8 7 4 4 6 7 7 7 6 6 4 3 3 2 3 3 3 3 2 2 3 4 4 5 4 5 5 5 5 6 6 6 5 5 5 5 5
4 2 6 7 4 3 2 4 7 5 4 5 5 4 5 7 8 7 7 6 5 5 4 4 3 2 3 3 3 3 3 3 4 5 5 5 5 5 6 6 6 6 6 6 6 5 6 6 5
6 5 6 6 4 2 2 3 5 6 7 5 6 7 7 7 7 7 6 5 4 4 4 4 4 4 4 4 4 4 4 5 5 5 6 6 6 6 7 7 7 7 7 7 5 5 6 6 6
4 4 6 4 6 6 4 5 6 10 9 9 9 9 10 9 8 7 6 5 5 4 4 3 4 4 4 5 5 5 5 6 6 6 7 7 7 7 7 8 8 8 8 7 6 6 6 6 7
3 4 6 4 0 4 5 5 4 9 9 10 10 9 9 9 8 7 6 5 4 4 4 5 5 5 6 6 5 6 6 6 6 7 8 8 8 8 8 8 8 8 9 8 7 8 8 7 7
Wind_Direction
148 144 140 119 100 245 260 255 226 75 66 64 69 72 71 58 93 127 98 139 138 144 147 144 141 139 139 138 137 135 132 130 129 128 127 127 128 130 132 135 138 141 143 145 146 145 140 137 135
146 147 142 106 215 293 273 247 130 114 123 108 84 76 68 73 91 112 117 136 139 140 140 141 139 137 137 138 138 139 139 137 137 138 138 139 140 142 144 147 150 152 153 154 154 154 153 150 149
161 174 145 179 242 231 267 285 138 123 120 109 91 55 56 89 114 125 137 139 134 134 135 141 139 137 135 136 137 141 143 145 145 147 149 151 154 156 158 160 164 164 163 164 164 164 162 162 163
154 157 298 244 253 247 253 273 159 108 73 73 93 58 34 43 111 131 138 140 135 132 134 142 140 139 137 138 140 144 148 151 154 157 160 162 166 169 172 174 175 177 177 176 176 175 173 173 176
108 132 245 278 270 272 278 271 113 96 86 87 95 91 48 37 114 131 140 142 138 135 139 145 144 144 144 145 147 150 154 158 162 165 169 173 177 181 183 184 186 188 190 189 187 185 184 185 188
128 144 197 273 287 298 314 76 98 94 103 102 96 96 61 102 126 137 139 139 139 142 143 148 151 152 153 154 156 158 160 164 169 174 179 184 188 193 197 197 198 200 202 201 197 195 194 194 196
167 162 236 273 299 318 354 51 85 100 97 84 101 95 81 102 131 133 131 129 131 136 137 141 152 156 158 160 163 166 169 174 180 185 190 197 203 208 212 214 214 214 212 211 209 205 202 201 202
177 101 294 302 306 315 342 51 69 87 82 72 72 108 123 106 115 119 120 120 122 127 136 133 144 151 159 167 173 178 181 186 191 196 201 207 213 219 223 226 227 225 222 222 220 214 211 210 210
144 57 270 268 286 307 347 69 64 61 79 60 55 79 95 97 110 116 113 112 118 124 130 135 145 159 167 173 186 189 193 199 204 209 213 216 222 230 236 237 235 234 232 229 228 223 219 217 218
135 185 240 238 259 303 20 59 80 77 68 58 54 58 76 84 103 116 121 116 113 118 125 133 143 162 177 187 189 195 205 211 213 215 221 222 222 228 237 241 243 242 240 236 232 229 225 223 222
198 220 253 269 272 219 78 60 46 96 66 67 90 82 82 85 91 102 104 98 96 101 106 101 93 92 117 141 150 194 217 221 222 223 226 226 225 232 240 241 249 249 247 242 238 234 229 224 221
248 262 260 273 282 181 107 99 66 65 89 88 85 84 82 87 91 97 100 98 97 94 92 83 74 71 71 84 102 152 216 217 218 226 231 226 226 233 240 242 245 247 245 239 234 232 229 226 226
253 268 278 294 32 86 94 93 94 81 88 87 86 82 83 89 90 91 92 93 92 92 88 82 72 68 66 68 36 31 357 351 204 216 223 208 204 231 242 256 260 256 255 248 241 235 234 230 230
260 293 333 3 77 75 95 90 82 89 96 90 87 88 90 93 97 94 90 91 90 93 94 87 67 62 60 54 36 17 20 23 31 30 233 185 186 205 246 266 270 271 266 258 248 243 238 234 233
322 344 18 25 51 64 93 64 75 97 93 92 92 96 97 94 95 96 101 100 97 92 93 96 82 63 54 42 28 22 13 11 359 342 343 331 219 217 242 273 280 278 282 274 262 256 248 243 237
4 25 22 353 38 37 78 87 92 81 76 84 96 100 99 96 99 107 111 108 107 102 93 82 78 66 53 43 30 17 11 6 350 338 331 320 291 262 258 277 278 279 288 282 272 261 255 251 238
25 27 346 336 33 48 73 102 89 66 66 65 87 104 110 111 111 119 126 128 130 129 117 94 77 69 58 46 32 19 12 5 350 338 322 297 282 276 265 273 275 279 276 278 281 275 258 255 246
309 347 346 345 10 50 67 77 67 45 43 53 100 120 131 139 149 155 157 154 150 146 135 117 98 84 75 51 34 24 12 358 350 341 329 319 314 300 285 268 273 274 273 275 272 271 265 257 254
119 85 49 318 36 49 56 62 35 15 21 293 236 168 173 177 181 177 180 175 167 161 148 141 130 117 97 70 54 37 358 343 344 347 352 350 336 321 298 286 283 272 261 263 266 267 270 264 249
102 120 192 21 69 75 72 52 0 345 279 246 224 202 193 193 190 193 196 192 187 180 171 161 152 142 131 130 138 160 265 308 316 327 339 346 337 325 314 290 277 269 264 271 269 261 266 273 239
262 186 185 164 87 60 90 58 285 261 242 234 222 208 196 190 194 208 203 195 188 183 178 167 163 151 145 132 90 24 8 349 345 336 334 331 331 327 317 296 279 267 250 261 266 255 246 259 262
236 214 176 159 139 121 121 183 266 259 260 228 226 211 203 203 203 208 200 187 185 186 174 159 157 156 155 138 119 128 304 294 282 291 306 318 328 333 334 322 307 288 262 266 277 267 248 241 256
193 169 146 141 128 102 27 140 272 234 226 226 223 216 213 213 206 205 198 185 174 163 150 149 149 162 175 171 170 182 261 260 282 309 327 330 329 334 340 339 340 329 307 290 290 292 274 247 237
134 98 81 76 87 73 273 155 268 229 219 223 226 222 221 218 209 196 169 139 124 117 127 142 148 179 208 211 218 224 264 286 314 327 328 324 321 325 335 341 343 337 328 312 302 292 286 274 260
121 109 58 18 29 333 288 311 261 247 231 222 225 229 230 215 175 141 127 119 124 129 142 153 158 197 236 243 265 270 275 283 294 292 294 305 310 311 316 334 334 330 319 312 307 299 289 283 280
161 134 146 187 184 226 297 266 266 268 251 232 230 228 214 147 127 130 139 142 149 155 156 157 167 211 249 261 277 287 266 242 264 271 275 283 280 278 291 310 317 319 318 317 311 299 288 282 278
53 44 152 125 97 100 256 278 297 283 257 222 205 175 146 139 138 143 149 153 160 160 164 170 177 218 254 254 255 257 246 258 266 275 277 281 279 283 299 307 311 311 313 311 307 294 291 286 274
121 129 73 85 115 106 229 234 226 224 216 196 164 150 153 153 151 151 161 170 173 172 174 178 186 212 234 241 248 245 251 260 263 269 277 277 278 281 292 295 297 299 300 301 303 294 289 289 280
22 45 91 102 134 138 195 255 225 198 185 164 165 167 169 168 168 175 181 185 183 181 186 199 220 233 243 243 242 252 260 263 263 262 263 262 265 269 273 277 283 286 287 288 289 287 287 281 282
172 170 139 126 82 133 148 259 276 164 162 156 165 175 177 175 180 185 187 196 203 209 219 228 238 245 244 238 237 244 254 261 263 262 261 259 260 261 260 263 268 273 278 277 275 278 284 274 272
Height
1529 1531 1533 1536 1538 1540 1531 1511 1495 1492 1492 1491 1491 1492 1495 1499 1504 1514 1510 1511 1514 1516 1519 1522 1525 1528 1530 1532 1534 1535 1537 1538 1540 1541 1542 1543 1544 1545 1546 1547 1548 1549 1550 1550 1551 1552 1553 1553 1554
1530 1531 1535 1536 1538 1539 1524 1500 1493 1490 1491 1491 1492 1495 1497 1502 1504 1506 1509 1513 1515 1517 1520 1523 1526 1528 1530 1532 1534 1536 1537 1539 1540 1541 1542 1543 1544 1545 1546 1547 1548 1549 1549 1550 1551 1552 1553 1554 1554
1531 1533 1535 1535 1535 1532 1516 1495 1491 1489 1489 1489 1494 1497 1501 1505 1507 1509 1511 1515 1517 1518 1521 1524 1526 1529 1531 1533 1535 1536 1538 1539 1540 1541 1542 1543 1544 1545 1546 1547 1548 1548 1549 1550 1551 1552 1553 1554 1555
1531 1533 1534 1536 1532 1516 1504 1493 1489 1489 1491 1491 1494 1501 1505 1508 1509 1511 1513 1516 1518 1520 1523 1525 1527 1529 1531 1533 1535 1537 1538 1539 1540 1541 1542 1543 1544 1544 1545 1546 1547 1548 1549 1550 1550 1551 1552 1553 1555
1531 1532 1535 1535 1523 1505 1495 1489 1487 1488 1492 1495 1495 1503 1507 1509 1510 1513 1515 1518 1519 1521 1524 1526 1528 1530 1532 1534 1536 1537 1538 1539 1540 1541 1542 1542 1543 1544 1545 1545 1546 1547 1548 1549 1550 1551 1552 1553 1554
1530 1530 1538 1537 1521 1503 1493 1488 1488 1491 1495 1498 1499 1504 1510 1512 1512 1516 1518 1521 1522 1523 1525 1527 1529 1531 1533 1535 1536 1537 1538 1539 1540 1540 1541 1542 1542 1543 1544 1545 1546 1546 1547 1548 1549 1550 1550 1552 1553
1529 1529 1533 1528 1520 1508 1497 1492 1491 1494 1497 1500 1501 1505 1512 1515 1516 1518 1521 1523 1524 1526 1527 1529 1531 1532 1534 1535 1537 1538 1538 1539 1540 1540 1541 1541 1542 1542 1543 1544 1544 1545 1546 1547 1547 1548 1549 1550 1551
1525 1527 1529 1527 1520 1512 1501 1496 1497 1497 1501 1504 1504 1507 1513 1517 1518 1519 1523 1525 1526 1527 1529 1530 1532 1533 1535 1536 1537 1538 1539 1539 1539 1540 1540 1540 1541 1541 1542 1542 1543 1543 1544 1545 1546 1547 1547 1548 1549
1523 1530 1534 1525 1517 1511 1504 1500 1503 1504 1504 1506 1508 1510 1514 1516 1517 1520 1524 1525 1527 1528 1530 1532 1533 1534 1535 1536 1537 1538 1538 1539 1539 1539 1539 1539 1539 1540 1540 1540 1541 1541 1542 1542 1543 1544 1545 1546 1547
1520 1531 1524 1513 1509 1509 1506 1504 1505 1509 1509 1511 1512 1513 1515 1517 1518 1520 1523 1525 1527 1529 1531 1532 1533 1534 1535 1536 1537 1537 1538 1538 1538 1538 1538 1537 1537 1538 1538 1538 1538 1539 1539 1539 1539 1540 1541 1542 1543
1517 1519 1511 1507 1505 1507 1506 1507 1508 1509 1515 1516 1515 1516 1517 1518 1520 1522 1524 1525 1527 1529 1530 1533 1533 1533 1534 1535 1536 1536 1536 1536 1536 1536 1536 1535 1535 1535 1535 1535 1535 1535 1535 1535 1535 1536 1536 1537 1538
1514 1509 1507 1504 1503 1505 1505 1508 1512 1513 1519 1519 1517 1517 1519 1519 1522 1524 1525 1526 1528 1529 1530 1533 1533 1533 1533 1534 1535 1535 1535 1535 1534 1533 1533 1532 1532 1532 1532 1531 1531 1531 1531 1530 1530 1530 1531 1532 1533
1511 1507 1504 1503 1502 1504 1506 1510 1514 1521 1522 1522 1521 1520 1522 1523 1525 1526 1526 1528 1529 1529 1531 1532 1533 1533 1533 1533 1534 1534 1534 1533 1531 1531 1530 1529 1529 1528 1528 1527 1527 1526 1526 1525 1525 1524 1525 1525 1526
1508 1506 1505 1504 1503 1506 1509 1515 1517 1525 1524 1524 1524 1524 1525 1526 1526 1527 1528 1529 1530 1530 1531 1532 1532 1532 1533 1533 1533 1532 1531 1530 1529 1528 1527 1526 1525 1525 1524 1523 1522 1522 1521 1519 1518 1518 1517 1517 1518
1505 1505 1506 1506 1505 1509 1510 1520 1525 1528 1527 1526 1526 1527 1527 1528 1528 1529 1530 1530 1531 1531 1532 1532 1532 1533 1533 1532 1532 1531 1529 1528 1527 1526 1525 1523 1522 1521 1520 1519 1518 1517 1515 1514 1512 1511 1510 1510 1510
1505 1511 1518 1512 1509 1511 1515 1532 1530 1530 1530 1530 1530 1529 1529 1530 1530 1531 1531 1531 1532 1532 1532 1532 1532 1532 1532 1532 1531 1529 1528 1527 1525 1524 1522 1521 1519 1518 1516 1515 1513 1512 1510 1508 1506 1504 1503 1502 1502
1515 1523 1522 1517 1513 1513 1519 1531 1531 1531 1531 1533 1533 1532 1531 1531 1532 1532 1532 1533 1533 1533 1533 1533 1533 1532 1531 1531 1529 1528 1526 1524 1523 1521 1519 1518 1516 1515 1513 1511 1509 1507 1505 1504 1501 1499 1498 1496 1495
1526 1525 1523 1522 1518 1517 1524 1530 1530 1531 1532 1534 1535 1534 1533 1533 1533 1533 1533 1533 1533 1533 1533 1532 1532 1531 1530 1529 1527 1526 1524 1522 1520 1518 1516 1514 1513 1511 1510 1508 1506 1504 1501 1499 1497 1495 1493 1491 1489
1515 1519 1523 1521 1519 1522 1528 1531 1532 1533 1534 1536 1535 1535 1535 1535 1534 1533 1533 1533 1533 1533 1532 1531 1530 1529 1528 1526 1524 1522 1520 1518 1516 1514 1512 1511 1509 1508 1506 1504 1502 1500 1498 1496 1494 1492 1489 1487 1486
1512 1519 1522 1521 1519 1524 1531 1535 1532 1533 1534 1536 1535 1534 1534 1534 1534 1533 1532 1532 1532 1531 1530 1529 1528 1526 1525 1523 1521 1519 1517 1515 1513 1511 1509 1507 1506 1504 1502 1500 1498 1497 1495 1493 1491 1489 1486 1485 1483
1511 1517 1520 1525 1526 1528 1533 1540 1537 1532 1532 1534 1533 1532 1533 1532 1531 1531 1531 1530 1530 1529 1528 1527 1525 1524 1522 1520 1518 1516 1514 1511 1509 1506 1504 1503 1501 1500 1498 1496 1495 1493 1492 1490 1488 1486 1484 1483 1482
1514 1505 1510 1518 1531 1542 1539 1551 1541 1535 1533 1532 1531 1531 1531 1530 1529 1529 1528 1528 1528 1528 1527 1525 1523 1522 1520 1518 1516 1513 1510 1507 1505 1502 1500 1499 1497 1496 1495 1493 1491 1490 1488 1487 1485 1484 1482 1481 1479
1506 1502 1508 1518 1532 1543 1544 1548 1544 1536 1534 1530 1528 1527 1527 1527 1527 1526 1527 1527 1527 1526 1525 1523 1521 1520 1518 1516 1513 1510 1507 1505 1502 1500 1497 1496 1494 1493 1491 1489 1488 1487 1486 1484 1483 1481 1480 1478 1477
1500 1509 1518 1527 1536 1549 1546 1546 1543 1535 1529 1526 1524 1524 1524 1525 1525 1525 1526 1526 1526 1525 1523 1522 1520 1518 1516 1513 1511 1508 1505 1502 1499 1497 1495 1493 1491 1489 1488 1486 1484 1483 1482 1481 1480 1479 1477 1476 1475
1502 1519 1537 1542 1551 1552 1543 1543 1539 1524 1521 1520 1520 1521 1522 1523 1523 1524 1525 1525 1524 1523 1521 1520 1518 1516 1513 1511 1508 1505 1502 1499 1497 1494 1491 1489 1486 1484 1483 1481 1480 1479 1478 1477 1476 1475 1474 1473 1472
1500 1511 1533 1542 1550 1552 1545 1545 1532 1517 1515 1516 1517 1519 1521 1522 1523 1523 1523 1523 1522 1521 1519 1517 1515 1513 1511 1508 1505 1503 1500 1497 1494 1491 1488 1485 1483 1481 1479 1477 1476 1475 1474 1473 1472 1471 1470 1469 1468
1498 1507 1509 1528 1541 1553 1547 1539 1526 1516 1515 1515 1516 1518 1519 1521 1521 1522 1521 1520 1519 1518 1516 1514 1512 1510 1508 1505 1502 1499 1497 1494 1491 1488 1485 1482 1479 1477 1475 1473 1471 1470 1468 1467 1466 1465 1465 1464 1464
1493 1499 1514 1529 1546 1552 1545 1540 1536 1521 1517 1515 1516 1517 1519 1520 1520 1520 1519 1518 1517 1515 1513 1511 1509 1507 1504 1502 1499 1496 1493 1490 1487 1484 1481 1479 1476 1474 1471 1469 1467 1465 1463 1462 1461 1460 1459 1459 1459
1498 1501 1513 1527 1532 1547 1552 1542 1515 1514 1513 1514 1515 1516 1517 1518 1518 1517 1516 1515 1514 1512 1510 1508 1506 1503 1501 1498 1495 1492 1489 1486 1483 1480 1477 1475 1472 1470 1467 1465 1463 1461 1459 1457 1456 1454 1454 1453 1453
1493 1499 1510 1526 1528 1534 1543 1539 1508 1509 1510 1511 1513 1515 1515 1515 1515 1514 1514 1512 1511 1509 1506 1504 1502 1499 1497 1494 1491 1488 1485 1482 1479 1476 1473 1470 1468 1465 1463 1461 1458 1456 1454 1452 1451 1449 1448 1447 1447